Home > Time Zones > World Clock > Weather > Japan > Kobe > Past weeks

Flag for Japan Weather past 2 weeks in Kobe, Japan

Now
82 °F

Clear.


Feels Like: 91 °F
Forecast: 76 / 94 °F
Wind: 8 mph from Southwest

Location: Kansai International Airport

Current Time: Aug 4, 2015 at 12:19:11 AM

Latest Report: Aug 4, 2015 at 12:00 AM


Visibility: 10 mi

Pressure: 29.83 "Hg

Humidity: 84%

Dew point: 77 °F

Location of KobeLocation

Historic Weather in Kobe — Graph

°F

Kobe temperature yesterday

Maximum temperature yesterday: 93 °F (at 4:00 PM)
Minimum temperature yesterday: 79 °F (at 3:30 AM)
Average temperature yesterday: 85 °F

Past Weeks' High & Low Weather Summary

 TemperatureHumidityPressure
High95 °F (Aug 1, 3:30 PM)100% (Jul 22, 3:30 AM)29.98 "Hg (Jul 22, 3:30 AM)
Low73 °F (Jul 23, 8:30 AM)49% (Aug 3, 4:00 PM)29.74 "Hg (Jul 27, 11:30 AM)
Average82 °F82%29.84 "Hg
* Reported Jul 19 11:00 PM — Aug 3 11:00 PM, Kobe, Weather by CustomWeather, © 2015

Note: Actual official high and low records may vary slightly from our data, if they occured in-between our weather recording intervals... More about our weather records

Advertising

Kobe weather history for previous 24 hours

 ConditionsComfort  
Time TempWeatherWind HumidityBarometerVisibility
11:00 PM
Mon, Aug 3
82 °FClear.7 mph84%29.86 "Hg10 mi
10:30 PM82 °FClear.9 mph84%29.86 "Hg10 mi
10:00 PM82 °FClear.12 mph84%29.86 "Hg10 mi
9:30 PM82 °FPassing clouds.12 mph84%29.86 "HgN/A
9:00 PM82 °FPassing clouds.12 mph84%29.83 "HgN/A
8:30 PM82 °FPassing clouds.9 mph89%29.83 "HgN/A
8:00 PM84 °FPassing clouds.9 mph79%29.83 "HgN/A
7:30 PM84 °FPassing clouds.9 mph84%29.83 "HgN/A
7:00 PM84 °FPassing clouds.10 mph79%29.83 "HgN/A
6:30 PM86 °FScattered clouds.12 mph75%29.80 "HgN/A
6:00 PM86 °FScattered clouds.12 mph75%29.80 "HgN/A
5:30 PM88 °FPassing clouds.10 mph75%29.80 "HgN/A
5:00 PM90 °FPassing clouds.13 mph71%29.80 "HgN/A
4:30 PM91 °FPassing clouds.10 mph63%29.80 "HgN/A
4:00 PM93 °FPassing clouds.7 mph49%29.80 "HgN/A
3:30 PM91 °FPassing clouds.6 mph56%29.80 "HgN/A
3:00 PM88 °FPassing clouds.7 mph75%29.80 "HgN/A
2:30 PM91 °FPassing clouds.8 mph63%29.83 "HgN/A
2:00 PM91 °FPassing clouds.7 mph63%29.83 "HgN/A
12:30 PM90 °FPassing clouds.8 mph63%29.86 "HgN/A
12:00 PM90 °FPassing clouds.9 mph63%29.86 "HgN/A
11:30 AM91 °FPassing clouds.10 mph63%29.89 "HgN/A
11:00 AM90 °FSunny.12 mph63%29.89 "Hg10 mi
10:30 AM88 °FSunny.12 mph66%29.89 "Hg10 mi
10:00 AM88 °FSunny.9 mph66%29.89 "Hg10 mi
9:30 AM90 °FSunny.7 mph63%29.89 "Hg10 mi
9:00 AM86 °FSunny.6 mph66%29.89 "Hg10 mi
8:30 AM84 °FPassing clouds.5 mph74%29.89 "HgN/A
8:00 AM84 °FSunny.3 mph74%29.89 "Hg10 mi
7:30 AM84 °FPassing clouds.3 mph74%29.89 "HgN/A
7:00 AM82 °FSunny.3 mph79%29.89 "Hg10 mi
6:30 AM82 °FClear.5 mph79%29.89 "Hg6 mi
6:00 AM81 °FClear.2 mph84%29.89 "Hg6 mi
5:30 AM81 °FClear.1 mph89%29.89 "Hg6 mi
5:00 AM79 °FClear.3 mph89%29.89 "Hg10 mi
4:30 AM81 °FPassing clouds.5 mph89%29.86 "HgN/A
4:00 AM79 °FPassing clouds.3 mph94%29.86 "HgN/A
3:30 AM79 °FPassing clouds.5 mph89%29.86 "HgN/A
3:00 AM81 °FPassing clouds.5 mph84%29.86 "HgN/A
2:30 AM81 °FClear.6 mph79%29.89 "Hg10 mi
2:00 AM81 °FClear.5 mph84%29.86 "Hg10 mi
1:30 AM81 °FClear.3 mph84%29.86 "Hg10 mi
1:00 AM81 °FClear.5 mph89%29.86 "Hg10 mi
12:30 AM82 °FClear.7 mph79%29.86 "Hg10 mi
12:00 AM82 °FClear.7 mph79%29.89 "Hg10 mi
Weather by CustomWeather, © 2015

See weather overviewHow to use our weather pages